This is the latest recevied weather packets stored in our database for station/object WC4PEM-15. If no packets are shown the sender has not sent any weather packets the latest 1 day(s).
| Time | Temp. | Humidity | Pressure | Rain* | Wind** | Luminosity | Snow |
|---|---|---|---|---|---|---|---|
| 1778010900 | 28.89° C | 51% | 1014.3 hPa | 0 mm | 3.58 m/s, 63° | - | - |
| 1778010636 | 28.89° C | 51% | 1014.4 hPa | 0 mm | 4.92 m/s, 98° | - | - |
| 1778010600 | 28.89° C | 51% | 1014.4 hPa | 0 mm | 4.92 m/s, 98° | - | - |
| 1778010359 | 28.89° C | 50% | 1014.5 hPa | 0 mm | 5.81 m/s, 129° | - | - |
| 1778010300 | 28.89° C | 50% | 1014.5 hPa | 0 mm | 5.81 m/s, 129° | - | - |
| 1778010052 | 29.44° C | 49% | 1014.5 hPa | 0 mm | 5.36 m/s, 95° | - | - |
| 1778010001 | 29.44° C | 49% | 1014.5 hPa | 0 mm | 5.36 m/s, 95° | - | - |
| 1778009753 | 30° C | 48% | 1014.5 hPa | 0 mm | 4.92 m/s, 102° | - | - |
| 1778009700 | 30° C | 48% | 1014.5 hPa | 0 mm | 4.92 m/s, 102° | - | - |
| 1778009450 | 30° C | 48% | 1014.6 hPa | 0 mm | 4.47 m/s, 88° | - | - |
| 1778009400 | 30° C | 48% | 1014.6 hPa | 0 mm | 4.47 m/s, 88° | - | - |
| 1778009100 | 30° C | 49% | 1014.8 hPa | 0 mm | 3.13 m/s, 99° | - | - |
| 1778008856 | 29.44° C | 48% | 1014.9 hPa | 0 mm | 2.24 m/s, 79° | - | - |
| 1778008800 | 29.44° C | 48% | 1014.9 hPa | 0 mm | 2.24 m/s, 79° | - | - |
| 1778008500 | 29.44° C | 48% | 1014.9 hPa | 0 mm | 2.68 m/s, 105° | - | - |
| 1778008392 | 29.44° C | 47% | 1014.9 hPa | 0 mm | 3.58 m/s, 17° | - | - |
| 1778008261 | 29.44° C | 47% | 1014.9 hPa | 0 mm | 3.58 m/s, 17° | - | - |
| 1778008200 | 29.44° C | 47% | 1014.9 hPa | 0 mm | 3.58 m/s, 17° | - | - |
| 1778007945 | 30° C | 48% | 1014.8 hPa | 0 mm | 3.58 m/s, 90° | - | - |
| 1778007900 | 30° C | 48% | 1014.8 hPa | 0 mm | 3.58 m/s, 90° | - | - |
| 1778007653 | 30° C | 49% | 1014.8 hPa | 0 mm | 3.58 m/s, 78° | - | - |
| 1778007601 | 30° C | 49% | 1014.8 hPa | 0 mm | 3.58 m/s, 78° | - | - |
| 1778007301 | 30° C | 49% | 1015.1 hPa | 0 mm | 3.13 m/s, 129° | - | - |
| 1778007061 | 29.44° C | 50% | 1015.1 hPa | 0 mm | 2.68 m/s, 74° | - | - |
| 1778007001 | 29.44° C | 50% | 1015.1 hPa | 0 mm | 2.68 m/s, 74° | - | - |
* Rain latest hour (hover to see other rain measurements)
** Current wind speed in m/s (hover to see current wind gust speed)